FW0418 Weather Reports


time (UTC)temp
F
wind
direction
speed
knots
gust
knots
rain 1hr
in
rain 24hr
in
rain mn
in
humidity
%
barometer
mb
20260504081502 44 233 0.0 0.9 0.00 0.00 0.00 67 1014.6
20260504050006 47 234 0.0 0.9 0.00 0.00 0.00 62 1014.3
20260504044508 47 234 0.0 1.7 0.00 0.00 0.00 61 1014.7
20260504044505 47 234 0.9 1.7 0.00 0.00 0.00 61 1014.4
20260504043008 48 234 0.9 1.7 0.00 0.00 0.00 60 1014.8
20260504043006 48 234 0.9 1.7 0.00 0.00 0.00 60 1014.4
20260504041504 48 234 0.0 0.9 0.00 0.00 0.00 59 1014.5
20260504040008 48 234 0.0 0.9 0.00 0.00 0.00 58 1014.0
20260504034504 49 234 0.9 0.9 0.00 0.00 0.00 58 1014.0
20260504033003 49 234 0.0 1.7 0.00 0.00 0.00 57 1014.2
20260504031505 49 234 0.9 1.7 0.00 0.00 0.00 57 1013.8
20260504030018 50 235 0.0 0.9 0.00 0.00 0.00 56 1014.1
20260504030006 50 235 0.0 0.9 0.00 0.00 0.00 56 1013.7
20260504024506 50 235 0.0 0.9 0.00 0.00 0.00 55 1014.0
20260504023004 51 235 0.0 1.7 0.00 0.00 0.00 54 1013.6
20260504021506 51 236 0.0 1.7 0.00 0.00 0.00 54 1013.8
20260504021504 51 236 0.0 1.7 0.00 0.00 0.00 54 1014.1
20260504020007 51 235 0.0 1.7 0.00 0.00 0.00 53 1014.0
20260504014509 51 233 0.0 1.7 0.00 0.00 0.00 54 1014.0
20260504014504 51 233 0.0 1.7 0.00 0.00 0.00 54 1013.6
20260504013004 51 233 0.0 0.9 0.00 0.00 0.00 53 1013.5
20260504011505 52 234 0.0 1.7 0.00 0.00 0.00 52 1013.3
20260504011503 52 234 0.9 1.7 0.00 0.00 0.00 52 1013.6
20260504010007 52 233 0.0 0.9 0.00 0.00 0.00 52 1013.2
20260504010005 52 233 0.0 0.9 0.00 0.00 0.00 52 1013.5
20260504004509 52 233 0.0 0.9 0.00 0.00 0.00 51 1013.4
20260504004505 52 233 0.0 0.9 0.00 0.00 0.00 51 1013.1
20260504003010 52 238 0.0 0.9 0.00 0.00 0.00 51 1013.3
20260504003004 52 238 0.0 0.9 0.00 0.00 0.00 51 1013.0
20260504001503 53 238 0.0 0.9 0.00 0.00 0.00 49 1013.1
20260504000007 53 239 0.0 0.9 0.00 0.00 0.00 49 1012.6
20260504000004 53 239 0.0 0.9 0.00 0.00 0.00 49 1012.9
20260503234508 54 233 0.0 0.9 0.00 0.00 0.00 49 1012.8
20260503233004 55 250 0.0 0.9 0.00 0.00 0.00 49 1012.5
20260503231505 55 231 0.0 0.9 0.00 0.00 0.00 48 1012.3
20260503231503 55 231 0.0 0.9 0.00 0.00 0.00 48 1012.6
20260503230006 56 226 0.0 3.5 0.00 0.00 0.00 47 1012.4
20260503224503 57 243 0.0 2.6 0.00 0.00 0.00 45 1012.6
20260503223005 57 264 0.0 3.5 0.00 0.00 0.00 46 1012.3
20260503223003 57 264 0.9 3.5 0.00 0.00 0.00 46 1012.6
20260503221504 57 288 0.0 2.6 0.00 0.00 0.00 47 1012.6
20260503220007 57 293 0.9 3.5 0.00 0.00 0.00 46 1012.3
20260503214502 57 289 0.9 3.5 0.00 0.00 0.00 45 1012.7
20260503213004 58 283 0.9 3.5 0.00 0.00 0.00 44 1012.3
20260503211504 59 297 0.9 3.5 0.00 0.00 0.00 43 1012.3
20260503211502 59 297 0.9 3.5 0.00 0.00 0.00 43 1012.6
20260503210006 59 295 0.0 2.6 0.00 0.00 0.00 46 1012.6
20260503204504 59 295 0.9 4.3 0.00 0.00 0.00 42 1012.3
20260503203004 58 293 1.7 5.2 0.00 0.00 0.00 42 1012.4
20260503203002 58 293 0.0 5.2 0.00 0.00 0.00 42 1012.8
20260503201505 58 283 1.7 4.3 0.00 0.00 0.00 45 1012.5
20260503201503 58 283 0.9 4.3 0.00 0.00 0.00 45 1012.9
20260503200006 58 295 0.9 4.3 0.00 0.00 0.00 44 1013.0
20260503194504 59 292 1.7 3.5 0.00 0.00 0.00 43 1012.7
20260503194502 59 292 0.9 3.5 0.00 0.00 0.00 43 1013.1
20260503193005 59 292 1.7 5.2 0.00 0.00 0.00 43 1013.0
20260503193002 59 292 1.7 5.2 0.00 0.00 0.00 43 1013.3
20260503191503 56 295 1.7 4.3 0.00 0.00 0.00 48 1013.5
20260503190006 56 289 2.6 6.1 0.00 0.00 0.00 47 1013.2
20260503184507 57 293 2.6 5.2 0.00 0.00 0.00 46 1013.7
20260503184504 57 293 1.7 5.2 0.00 0.00 0.00 46 1013.4
20260503183004 56 293 1.7 5.2 0.00 0.00 0.00 46 1013.5
20260503181504 56 268 1.7 6.1 0.00 0.00 0.00 47 1013.9
20260503180017 55 281 0.9 5.2 0.00 0.00 0.00 49 1014.0
20260503180007 55 281 2.6 5.2 0.00 0.00 0.00 49 1013.6
20260503174506 55 285 1.7 6.1 0.00 0.00 0.00 50 1013.7
20260503173005 53 296 2.6 5.2 0.00 0.00 0.00 49 1013.7
20260503173003 53 296 0.9 5.2 0.00 0.00 0.00 49 1014.1
20260503171504 53 295 2.6 7.0 0.00 0.00 0.00 47 1013.9
20260503171502 53 295 2.6 7.0 0.00 0.00 0.00 47 1014.3